Probability
0 0 0 0 0 0 0 0 0 0 0 0 0 0 1 4 6 8 7 5 6 6 7 11 18 23 28 30 30 28 28 27 22 17 13 10 6 4 4 4 5 3 2 3
0 0 0 0 0 0 0 0 0 0 0 0 0 0 1 5 7 8 8 7 8 9 9 12 18 22 26 28 27 27 28 25 21 18 14 10 8 6 5 5 5 3 2 3
0 0 0 0 0 0 0 0 0 0 0 0 0 0 2 6 8 8 8 9 11 11 12 15 19 22 25 26 25 27 27 25 23 20 15 11 9 6 5 6 5 4 3 3
0 0 0 0 0 0 0 0 0 0 0 0 0 1 4 8 8 8 8 9 11 12 13 17 20 22 23 24 25 26 26 26 26 24 19 15 10 6 6 6 6 5 5 4
0 0 0 0 0 0 0 0 0 0 0 0 0 1 5 9 10 9 10 10 11 12 13 17 19 20 21 22 25 26 25 25 27 26 24 19 12 7 7 7 6 6 6 6
0 0 0 0 0 0 0 0 0 0 0 0 0 1 5 9 10 10 12 12 13 12 12 15 18 20 21 22 24 25 25 25 26 27 25 21 14 10 8 6 5 6 6 7
0 0 0 0 0 0 0 0 0 0 0 0 0 1 4 7 7 9 12 13 12 12 11 13 17 20 23 24 24 23 24 25 25 25 23 20 16 13 10 7 5 6 7 7
0 0 0 0 0 0 0 0 0 0 0 0 0 2 4 6 7 10 12 12 11 10 9 11 17 22 24 25 25 22 23 25 23 21 19 19 17 15 13 10 8 9 9 8
0 0 0 0 0 0 0 0 0 0 0 0 0 2 4 6 8 11 13 12 10 9 8 12 18 23 24 25 25 23 23 24 22 17 15 16 17 15 13 12 12 12 12 12
0 0 0 0 0 0 0 0 0 0 0 0 0 2 4 5 7 10 11 11 9 8 9 13 19 23 25 25 25 24 23 23 20 15 13 15 16 14 12 12 12 13 14 13
0 0 0 0 0 0 0 0 0 0 0 0 0 1 3 4 6 7 9 10 10 10 10 14 20 24 26 26 26 26 25 24 23 20 17 17 16 13 11 10 10 11 13 13
0 0 0 0 0 0 0 0 0 0 0 0 0 1 3 5 6 7 8 10 12 12 13 16 21 25 26 27 27 27 27 26 27 27 25 21 18 14 12 10 9 10 11 12
0 0 0 0 0 0 0 0 0 0 0 0 0 1 2 4 7 7 7 9 12 13 14 17 21 25 26 27 28 28 27 26 28 30 29 24 20 17 16 13 11 10 10 9
0 0 1 0 0 0 0 0 0 1 1 1 2 3 2 3 4 5 6 6 9 12 13 14 17 22 25 25 26 26 26 25 26 28 26 22 20 19 18 17 15 12 10 9
1 1 1 1 0 0 0 0 1 2 2 3 4 4 3 2 2 2 3 3 5 8 9 9 11 17 21 22 22 23 23 23 23 23 21 19 17 17 18 20 18 15 12 11
2 2 2 1 1 0 0 0 1 2 2 3 3 3 2 2 2 2 1 1 3 5 5 6 9 12 15 17 18 18 17 17 19 19 18 16 16 17 19 21 20 17 14 13
3 3 3 2 1 0 0 0 0 1 1 1 2 1 1 2 2 2 2 2 2 3 5 7 10 11 12 13 14 14 13 12 14 16 16 15 15 16 17 19 19 17 16 16
3 3 3 3 2 1 0 0 0 0 0 0 0 0 0 1 1 1 3 3 3 3 5 8 11 12 13 13 13 14 13 11 11 13 13 13 14 15 14 15 16 17 18 19
3 3 3 2 2 1 0 0 0 1 0 0 0 0 1 1 1 2 4 4 3 4 5 8 11 14 16 16 15 15 13 11 11 11 11 12 13 14 14 14 15 16 19 21
1 2 1 1 1 1 1 0 0 0 0 0 0 1 3 4 4 5 6 6 4 5 7 9 10 13 16 17 17 16 13 10 9 10 10 10 11 12 12 14 15 17 19 20
0 0 0 0 0 1 2 1 1 1 1 1 2 3 5 7 8 8 8 7 6 6 9 10 9 11 15 17 17 16 13 9 8 8 8 8 8 8 9 11 15 16 16 15
0 0 0 0 0 1 2 2 2 2 2 3 4 5 5 7 9 8 7 7 6 7 9 9 8 10 13 15 16 17 14 11 9 8 7 7 7 6 7 8 12 14 13 11
0 0 0 1 0 0 1 2 3 3 3 4 5 6 6 7 8 7 6 5 5 6 7 7 7 8 11 13 15 16 16 14 11 9 8 8 7 7 6 7 9 11 11 10
0 0 0 0 0 0 0 1 2 2 2 2 4 5 6 7 7 7 5 3 2 4 4 4 5 6 8 10 12 15 16 14 12 10 9 9 9 8 7 7 8 9 11 11
0 0 0 0 0 0 0 0 1 1 1 1 2 3 5 6 7 6 4 2 2 3 3 3 3 5 6 7 9 12 14 15 13 11 10 10 10 9 8 7 7 8 8 8
0 1 1 1 0 0 0 0 0 0 0 0 0 2 5 6 6 5 4 3 3 4 3 2 2 4 5 6 7 10 13 15 14 12 10 10 10 9 8 7 7 6 6 4
Wind_Speed
10 11 12 12 12 12 10 11 10 7 4 7 8 7 6 5 6 6 6 6 6 6 6 6 7 8 8 8 9 9 8 8 6 5 5 4 4 3 2 2 2 2 1 2
10 14 12 9 9 11 12 13 11 7 5 7 8 8 7 6 7 6 6 6 6 6 7 6 7 8 9 8 9 9 9 8 8 5 4 3 3 3 2 1 2 2 2 2
15 7 7 9 11 13 14 14 12 9 7 9 9 11 10 8 7 5 5 6 6 7 7 8 8 8 9 9 9 8 9 9 8 7 5 4 3 3 3 3 2 2 2 2
12 8 8 12 13 13 13 12 11 11 11 10 10 10 8 8 7 6 5 5 5 6 7 7 8 8 9 9 8 8 8 8 8 8 7 7 5 4 3 2 2 3 3 2
9 9 10 12 12 12 11 8 11 12 13 13 12 13 8 9 9 6 5 4 5 5 7 7 8 8 8 8 8 8 8 8 8 7 7 7 5 4 3 3 3 3 2 2
9 7 9 9 9 9 7 8 9 12 12 15 14 13 9 6 7 6 5 4 4 5 6 7 7 7 7 7 7 8 8 8 8 8 8 7 5 4 4 4 3 3 2 2
10 10 8 7 9 10 11 10 9 11 12 12 9 11 6 2 3 4 4 4 4 5 5 7 7 8 7 8 7 7 8 8 8 8 7 7 6 6 5 4 4 3 2 2
10 10 9 7 9 8 12 14 12 10 10 8 9 10 3 2 2 3 3 3 3 4 5 6 7 7 7 7 7 7 8 8 8 8 7 6 5 4 3 3 3 3 2 2
7 7 6 6 7 10 11 13 12 13 13 12 9 7 5 3 3 4 4 4 4 4 4 5 6 7 7 7 7 7 7 8 8 8 7 6 5 4 3 3 3 2 2 2
6 8 6 6 8 9 10 10 9 12 12 13 11 11 7 7 7 6 5 4 4 4 3 4 5 6 6 6 7 7 7 7 7 7 6 4 5 4 3 3 3 2 2 2
8 8 6 8 9 8 8 10 10 10 11 11 11 5 0 4 6 7 6 5 3 4 3 3 5 6 6 6 6 6 7 7 7 6 5 4 4 4 4 4 3 3 3 3
5 7 8 7 5 5 8 9 10 10 10 11 11 3 2 0 3 4 3 3 3 2 3 4 5 6 6 6 6 6 6 6 7 6 6 5 5 4 4 4 4 3 4 4
4 6 8 8 9 8 8 7 8 9 8 9 11 3 3 2 3 3 2 2 2 2 2 3 4 5 5 4 5 5 5 5 6 6 5 5 4 4 4 4 4 4 4 4
5 6 9 9 6 5 7 8 8 10 9 10 11 6 3 2 3 2 1 1 2 2 2 2 2 4 4 4 4 4 4 5 5 5 5 5 4 4 4 4 4 4 4 5
5 7 8 8 6 7 9 9 9 10 11 11 8 7 4 3 2 1 1 1 1 1 1 1 1 2 4 4 4 4 3 4 4 5 5 5 4 4 4 4 4 4 4 5
4 6 7 9 7 7 8 8 9 10 10 10 9 6 4 2 1 1 1 1 1 1 0 0 0 2 3 4 4 4 3 4 4 4 4 4 4 4 4 4 4 4 5 5
5 6 7 8 6 8 8 6 7 7 8 9 8 5 3 3 2 2 2 1 1 1 1 1 1 1 2 3 3 4 4 3 4 4 3 4 4 3 3 4 4 4 4 4
5 6 6 6 6 9 1 2 3 4 4 5 5 4 3 3 2 2 2 2 2 1 1 1 1 1 2 2 3 3 4 4 4 3 3 3 3 4 3 3 4 3 4 4
5 6 6 6 7 5 2 2 3 5 4 3 4 3 3 3 4 3 0 1 1 2 2 2 1 1 2 3 3 3 4 4 4 4 3 3 3 3 3 3 3 3 3 4
3 5 6 7 8 5 1 4 4 5 4 2 3 3 3 4 5 1 2 2 1 1 1 1 1 1 1 2 3 3 4 3 3 3 3 3 2 2 3 3 3 3 4 4
3 5 7 8 7 2 3 4 3 5 2 4 4 3 3 3 4 3 1 1 1 1 1 1 1 1 0 1 2 3 3 3 3 3 3 2 2 3 3 3 3 3 3 3
4 4 5 5 6 1 5 2 3 4 5 4 4 4 3 3 2 1 1 1 1 1 1 0 0 0 0 1 2 2 2 2 2 2 2 2 2 2 2 2 2 3 3 4
2 4 4 3 2 4 4 3 4 4 4 5 5 4 3 3 2 1 1 1 1 2 2 1 1 0 1 1 2 2 2 2 2 2 2 2 2 2 2 3 3 3 3 4
0 2 3 2 0 3 3 3 4 4 5 5 5 4 3 3 2 2 2 2 2 2 2 1 1 1 1 1 2 2 2 2 3 3 2 2 2 3 3 3 3 3 3 4
3 2 3 3 2 3 2 4 5 5 5 5 5 4 4 3 3 3 2 2 2 2 2 1 1 1 2 2 2 2 1 2 2 2 2 3 2 2 2 2 2 3 3 2
2 3 4 3 3 3 3 3 4 4 4 5 5 5 4 3 3 3 2 2 2 2 2 2 2 2 2 2 2 1 1 2 2 2 2 2 2 2 3 3 3 2 3 3
Wind_Direction
198 220 223 224 231 252 259 255 248 245 232 242 244 243 230 224 223 220 212 207 200 193 187 176 176 175 170 169 172 172 171 165 168 167 173 173 173 174 168 156 135 164 193 190
207 225 232 237 233 240 243 245 245 241 231 251 246 245 234 225 225 227 227 217 207 193 178 173 177 175 171 171 175 173 171 168 174 170 173 173 166 171 153 143 136 182 193 204
227 231 219 224 223 229 237 244 247 248 239 235 242 239 224 215 215 220 226 225 211 200 189 178 175 176 173 173 173 173 173 171 175 165 163 154 157 168 163 171 173 191 198 196
234 229 224 226 229 233 240 240 250 246 245 240 234 251 221 212 212 215 217 215 207 199 193 183 178 178 177 175 171 172 174 171 171 170 170 169 175 176 178 183 177 182 192 196
223 219 226 232 234 238 252 245 243 245 249 254 240 252 230 207 220 214 214 215 207 195 185 179 177 175 173 171 169 169 170 171 173 178 174 179 182 180 172 173 171 197 190 202
239 227 237 242 239 234 234 230 234 239 243 244 239 247 244 216 226 219 209 200 192 187 180 173 167 164 166 165 167 166 167 171 173 178 180 186 183 180 175 183 185 198 187 191
222 214 212 229 224 212 219 225 226 225 226 239 222 237 245 213 225 221 211 193 178 173 175 173 169 165 168 167 165 167 168 171 174 178 183 185 184 185 187 198 195 207 196 195
223 216 197 212 231 226 223 233 244 251 249 242 220 235 216 198 193 195 187 190 180 174 174 174 167 167 169 170 165 168 171 172 173 176 180 180 183 192 191 201 214 207 213 205
243 229 184 212 232 240 227 233 253 266 265 263 238 224 201 185 197 192 188 188 182 178 170 166 161 166 167 168 170 171 172 171 174 175 177 176 181 191 189 189 211 210 213 210
265 253 217 204 222 226 246 243 241 245 252 253 243 234 228 205 212 203 199 199 182 171 166 165 159 159 161 166 170 170 174 171 171 175 180 172 177 185 196 203 194 215 226 223
261 250 221 209 220 222 220 224 240 249 254 260 258 240 222 204 197 201 201 197 188 179 167 166 161 157 161 163 164 169 171 171 171 172 171 171 176 188 199 207 210 211 223 221
252 260 244 226 223 249 236 237 234 242 246 251 266 251 64 126 179 193 187 172 170 178 166 165 157 152 153 160 162 166 168 172 172 171 174 174 179 192 199 204 214 216 223 228
241 248 240 215 197 200 218 229 237 248 257 255 256 224 111 147 165 167 168 145 145 155 154 148 144 151 155 157 157 162 168 172 173 170 175 174 184 191 200 205 210 216 223 230
252 244 253 259 262 225 227 231 235 242 248 253 257 256 210 207 207 183 165 144 130 134 126 120 130 152 156 162 161 168 173 170 171 174 177 177 186 196 205 207 210 217 225 230
250 243 249 264 262 246 245 239 233 240 253 261 266 267 268 270 263 255 192 182 161 125 104 110 135 161 169 170 169 166 166 165 171 179 183 187 188 196 206 210 215 222 229 236
239 255 253 249 239 238 242 243 234 239 249 256 254 259 291 299 281 222 216 216 212 197 243 311 283 195 180 175 172 164 166 166 171 183 190 187 190 197 206 212 216 225 232 239
226 238 250 252 242 238 235 253 246 237 246 252 255 264 257 246 242 243 240 231 263 296 321 326 296 232 198 190 180 173 171 169 173 182 187 189 192 200 208 216 220 229 236 240
252 244 250 256 236 238 222 354 291 263 260 253 257 261 263 265 249 244 255 261 279 297 310 323 297 218 200 190 183 172 169 175 180 184 189 192 195 201 205 216 224 234 239 240
246 251 255 252 245 234 204 297 284 262 258 294 279 271 278 274 237 210 156 323 300 293 298 307 293 214 193 183 180 174 175 180 188 193 200 201 199 206 210 219 230 237 244 247
197 239 253 253 255 256 12 12 325 253 227 15 331 317 302 267 247 208 29 333 309 284 278 294 281 198 188 185 191 189 188 188 195 198 212 216 217 218 223 228 236 242 245 248
229 229 245 257 257 255 17 350 271 246 14 5 341 329 301 289 319 351 339 330 346 358 302 255 213 217 199 194 201 202 196 193 193 199 212 214 224 231 227 226 233 242 250 255
294 270 259 265 258 258 18 352 335 359 352 336 334 335 325 326 333 350 7 359 356 349 349 316 236 239 216 211 214 209 201 201 201 207 213 214 224 236 227 225 230 235 242 241
332 339 322 323 355 27 3 14 8 341 334 334 332 335 330 329 339 7 13 6 351 340 349 341 310 288 264 235 232 224 216 205 201 210 219 226 233 232 226 226 224 227 230 245
1 335 293 280 359 349 353 15 1 349 342 337 331 323 330 342 350 357 3 4 349 350 349 333 300 278 287 281 255 230 218 203 201 209 225 237 239 238 225 238 237 242 240 250
322 289 280 270 317 314 313 348 353 353 350 344 341 341 346 345 346 353 353 357 353 346 331 300 286 286 284 284 272 244 205 202 206 207 224 240 245 252 250 250 264 264 271 281
324 308 295 313 333 304 316 330 340 340 334 338 342 344 349 345 343 342 344 351 345 344 335 319 311 302 306 305 288 242 204 201 207 225 241 255 253 250 252 250 247 235 258 247